Burlington, IA

10:46 PM CDT on August 29, 2016 (GMT -0500)
Burlington Regional

Weather History for KBRL - January, 2013

Change the Weather History Date:

Saturday, January 12, 2013

  Actual Average Record
Temperature  
Mean Temperature 38 °F 26 °F  
Max Temperature 54 °F 34 °F 60 °F (1960)
Min Temperature 22 °F 17 °F -21 °F (1918)
Degree Days  
Heating Degree Days 27 39  
Month to date heating degree days 416 468  
Since 1 July heating degree days 2609 2654  
Cooling Degree Days 0 0  
Month to date cooling degree days 0 0  
Year to date cooling degree days 0 0  
Moisture  
Dew Point 25 °F    
Average Humidity 74    
Maximum Humidity 88    
Minimum Humidity 59    
Precipitation  
Precipitation T in 0.04 in 0.56 in (1960)
Month to date precipitation 0.61 0.51  
Year to date precipitation 0.61 0.51  
Sea Level Pressure  
Sea Level Pressure 29.95 in    
Wind  
Wind Speed 11 mph (NW)    
Max Wind Speed 20 mph    
Max Gust Speed 26 mph    
Visibility 6 miles    
Events Snow    
T = Trace of Precipitation, MM = Missing Value Source: NWS Daily Summary

Daily Weather History Graph

Daily Weather History Graph

Search for Another Location

Airport or City:

Trip Planner

Search our weather history database for the weather conditions in past years. The results will help you decide how hot, cold, wet, or windy it might be!

Date:

Astronomy

Jan. 12, 2013 Rise Set
Actual Time 7:27 AM CST 4:58 PM CST
Civil Twilight 6:57 AM CST 5:28 PM CST
Nautical Twilight 6:23 AM CST 6:02 PM CST
Astronomical Twilight 5:50 AM CST 6:35 PM CST
Moon 7:46 AM CST (1/12) 6:28 PM CST (1/12)
Length of Visible Light 10h 31m
Length of Day
9h 31m
New Moon, 1% of the Moon is Illuminated
Jan 12
New Moon
Jan 18
First Quarter
Jan 26
Full
Feb 3
Last Quarter
Feb 10
New

Hourly Weather History & Observations

Time (CST) Temp. Windchill Dew Point Humidity Pressure Visibility Wind Dir Wind Speed Gust Speed Precip Events Conditions
12:53 AM 53.1 °F - 45.0 °F 74% 29.67 in 10.0 mi SSW 13.8 mph - N/A   Clear
1:53 AM 52.0 °F - 45.0 °F 77% 29.69 in 10.0 mi SSW 13.8 mph - N/A   Clear
2:53 AM 51.1 °F - 45.0 °F 80% 29.73 in 10.0 mi SSW 12.7 mph - N/A   Clear
3:53 AM 48.9 °F - 43.0 °F 80% 29.75 in 10.0 mi SW 9.2 mph - N/A   Clear
4:53 AM 51.1 °F - 37.9 °F 61% 29.79 in 10.0 mi West 17.3 mph 25.3 mph N/A   Clear
5:53 AM 42.1 °F 35.7 °F 34.0 °F 73% 29.86 in 10.0 mi West 11.5 mph 20.7 mph N/A   Partly Cloudy
6:53 AM 39.0 °F 34.0 °F 33.1 °F 79% 29.91 in 10.0 mi WNW 6.9 mph - N/A   Partly Cloudy
7:53 AM 36.0 °F 28.5 °F 28.9 °F 76% 29.95 in 10.0 mi WNW 10.4 mph 18.4 mph N/A   Mostly Cloudy
8:37 AM 33.8 °F 26.4 °F 28.4 °F 81% 29.96 in 10.0 mi NW 9.2 mph 18.4 mph N/A   Scattered Clouds
8:53 AM 34.0 °F 24.6 °F 27.0 °F 75% 29.99 in 10.0 mi NW 13.8 mph 18.4 mph N/A   Partly Cloudy
9:53 AM 33.1 °F 24.9 °F 21.9 °F 64% 30.01 in 10.0 mi WNW 10.4 mph - N/A   Clear
10:53 AM 33.8 °F 26.4 °F 21.2 °F 60% 30.03 in 10.0 mi NW 9.2 mph - N/A   Clear
11:53 AM 33.1 °F 24.9 °F 21.0 °F 61% 30.01 in 10.0 mi WNW 10.4 mph - N/A   Clear
12:53 PM 32.0 °F 24.8 °F 21.0 °F 64% 30.00 in 10.0 mi NW 8.1 mph - N/A   Partly Cloudy
1:53 PM 30.9 °F 25.2 °F 21.0 °F 67% 30.01 in 10.0 mi NW 5.8 mph - N/A   Overcast
2:53 PM 30.9 °F 24.3 °F 21.9 °F 69% 30.05 in 10.0 mi West 6.9 mph - 0.00 in   Overcast
3:53 PM 30.0 °F 21.7 °F 19.9 °F 66% 30.02 in 10.0 mi NNW 9.2 mph - 0.00 in   Overcast
4:53 PM 28.9 °F 20.4 °F 19.0 °F 67% 30.00 in 10.0 mi North 9.2 mph - 0.00 in   Overcast
5:53 PM 28.0 °F 18.1 °F 19.0 °F 69% 30.01 in 10.0 mi NNW 11.5 mph - N/A   Overcast
6:53 PM 28.4 °F 19.1 °F 19.4 °F 69% 30.03 in 10.0 mi NNW 10.4 mph - N/A   Overcast
7:40 PM 26.6 °F 15.2 °F 21.2 °F 80% 30.02 in 2.5 mi NW 13.8 mph 19.6 mph 0.00 in Snow Light Snow
7:48 PM 24.8 °F 14.6 °F 21.2 °F 86% 30.01 in 1.0 mi NNW 10.4 mph - 0.00 in Snow Light Snow
7:53 PM 26.1 °F 16.2 °F 23.0 °F 88% 30.02 in 1.2 mi North 10.4 mph - 0.00 in Snow Light Snow
8:08 PM 26.6 °F 15.2 °F 21.2 °F 80% 29.99 in 3.0 mi North 13.8 mph - 0.00 in Snow Light Snow
8:39 PM 26.6 °F 13.4 °F 21.2 °F 80% 29.93 in 1.8 mi North 18.4 mph 25.3 mph 0.00 in Snow Light Snow
8:50 PM 24.8 °F 12.9 °F 21.2 °F 86% 29.94 in 0.8 mi North 13.8 mph 21.9 mph 0.00 in Snow Light Snow
8:53 PM 25.0 °F 12.6 °F 21.9 °F 88% 29.97 in 0.8 mi North 15.0 mph 21.9 mph 0.00 in Snow Light Snow
8:59 PM 24.8 °F 12.9 °F 21.2 °F 86% 29.94 in 1.0 mi North 13.8 mph 23.0 mph 0.00 in Snow Light Snow
9:12 PM 24.8 °F 12.4 °F 21.2 °F 86% 29.95 in 3.0 mi NNW 15.0 mph 19.6 mph 0.00 in Snow Light Snow
9:48 PM 24.8 °F 14.6 °F 21.2 °F 86% 29.99 in 2.5 mi NNW 10.4 mph 18.4 mph 0.00 in Snow Light Snow
9:53 PM 24.1 °F 13.7 °F 21.0 °F 88% 30.01 in 2.0 mi NNW 10.4 mph - 0.00 in Snow Light Snow
10:00 PM 24.8 °F 15.3 °F 21.2 °F 86% 29.99 in 1.2 mi NW 9.2 mph 17.3 mph 0.00 in Snow Light Snow
10:53 PM 23.0 °F 11.7 °F 19.0 °F 85% 30.03 in 1.2 mi NNW 11.5 mph - 0.00 in Snow Light Snow
11:06 PM 23.0 °F 12.4 °F 19.4 °F 86% 30.00 in 3.0 mi NNW 10.4 mph - 0.00 in Snow Light Snow
11:15 PM 21.2 °F 9.5 °F 19.4 °F 93% 29.99 in 2.0 mi NNW 11.5 mph - 0.00 in Snow Light Snow
11:25 PM 21.2 °F 8.9 °F 19.4 °F 93% 29.99 in 1.8 mi NNW 12.7 mph - 0.00 in Snow Light Snow
11:31 PM 21.2 °F 8.3 °F 19.4 °F 93% 29.98 in 2.0 mi NNW 13.8 mph - 0.00 in Snow Light Snow
11:41 PM 21.2 °F 9.5 °F 19.4 °F 93% 29.97 in 3.0 mi North 11.5 mph - 0.00 in Snow Light Snow
11:53 PM 21.9 °F 11.0 °F 19.0 °F 89% 29.98 in 6.0 mi NNW 10.4 mph - 0.00 in Snow Light Snow